Location: Kikino
(54.4440°N, 112.0940°W)
Time: 10:02:28
(UTC+00:00)

Vanguard 3 - Pass Details

Date: 23 May 2024
Orbit: 509 x 3231 km, 33.3° (Epoch: 16 June)

Event Time Altitude Azimuth Distance (km) Brightness Sun altitude
Rises 05:44:17 0° 254° (WSW) 5,205 11.4 -11.8°
Reaches altitude 10° 05:47:57 10° 243° (WSW) 4,586 10.9 -12.0°
Maximum altitude 05:58:40 28° 192° (SSW) 4,143 10.3 -12.6°
Enters shadow 06:11:22 13° 146° (SE) 5,839 10.9 -13.2°
